Showing default

CAPELLA-16 (ACADIA), 65318

Orbit data source: Space-Track

CAPELLA-16 (ACADIA), 65318 is a payload satellite owned by Capella Space (US) in SSO that was launched on Tue, 26 Aug 2025 UTC via an FALCON 9 launch vehicle from the Air Force Western Test Range (AFWTR). Payload-class satellites include a variety of spacecraft equipped with specific instruments for various scientific and technological missions. These include communications satellites like Starlink; space stations such as the ISS; scientific satellites like the Hubble; Earth observation satellites from companies like Planet Labs, Umbra, and HawkEye 360; GPS; miniature CubeSats for education and research; and military/defense satellites.

Loading next visibility...
Identifier
65318, 2025-188D
Orbit
SSO
Country
Flag of USUS
Related business
Manufacturer
Capella Space
Mission
Operational Commercial Radar Imaging
Bus & Motor
ACADIA, Unknown motor
Mass
180 kg wet, ~150 kg dry
Launch date (UTC)
2025-08-26 (10 months ago)
Launch vehicle
FALCON 9
Launch site
Air Force Western Test Range (AFWTR)
Object type
Payload
Rocket body
Debris
Shape & HBR
Box + 2 Pan + 1 Dish + 1 Rod, 14.5 m
Radar Cross Section
0.463 m², Large (>1 m²)

Expand to show TLE details & history
Last TLE update: 18 hours ago

TLE from 18 hours ago
0 CAPELLA-16 (ACADIA)
1 65318U 25188D   26171.17082777  .00005085  00000-0  48496-3 0  9995
2 65318  97.7384 246.2788 0003642 205.5591 154.5450 14.93768302 44366
Epoch: 2026-06-20T04:05Z
TLE epoch observation values (Epoch: 2026-06-20T04:05:59.519Z)
Latitude
0.00005°
Longitude
-83.60849°
Altitude
591.534 km
Speed
7.563 km/s
True Right ascension
16h 25m 06s
True Declination
0° 00' 00"
Sunlit
Object was in full shadow at epoch
Visualization orbit readout
Latitude
Unknown
Longitude
Unknown
Altitude
Unknown
Speed
Unknown
Apparent Right ascension
Unknown
Apparent Declination
Unknown
Sunlit
N/A
Visualization observer readout
Local Sidereal Time
08:43:06
Azimuth
Unknown
Elevation
Unknown
Doppler factor
Unknown
Orbital elements
Apogee altitude
585.749 km
Perigee altitude
580.678 km
Semi-major axis
6,961.351 km
Eccentricity
0.00036
Inclination
97.7384°
RAAN
246.2788°
Arg. of periapsis
205.5591°
True anomaly
154.56293°
Mean anomaly
154.545°
Eccentric anomaly
154.55397°
Mean motion
3.73683 °/min
Orbital period
96.34 mins
BSTAR
0.00048496
Loading maneuver chart data...
Computing Atmospheric mass density...
Loading historical data...
Loading historical data...
Loading historical data...
Loading historical data...
Loading historical data...
Loading historical data...
Loading historical data...

Documentation

Showing up to 5 results
|